Voltar ao catálogo

STARLINK-37914

AtivoComunicaçõesVLEO
NORAD 69964·PAYLOAD·🇺🇸 United States

Lançado Jul 9, 2026 de Cape Canaveral Space Force Station

Loading…

Próximas Passagens (próximas 24 horas)

TLE

AtualizadoSource: CelesTrak SupGP

Época: Sep 14, 2026, 22:55 UTC

1 69964C 26157X   26257.95534722 -.00013005  00000+0 -38446-3 0  2579
2 69964  53.1595 359.6223 0001357  79.9305 219.9338 15.34378408    12

Acompanhe STARLINK-37914 em tempo real com AllMySat

Download on the App Store